Wind_Speed
7 6 5 4 0 2 9 7 8 2 4 5 6 7 10 11 11 4 16 12 6 3 1 3 6 8 10 11 12 13 14 13 14 14 14 14 13 11 11 10 9 7 8 8 9 10 9 10 11
8 5 4 3 2 9 11 9 8 4 10 6 9 10 8 9 14 16 8 6 2 2 5 7 8 9 10 12 14 15 15 15 14 14 14 14 14 13 12 11 10 9 9 9 10 10 10 10 11
8 5 4 2 4 4 5 2 4 3 9 10 6 8 7 8 12 13 9 6 5 6 8 10 11 12 12 12 14 16 16 16 15 15 14 14 14 14 13 13 12 11 11 11 10 10 9 10 10
7 6 5 7 4 4 6 10 5 10 13 11 9 10 8 7 6 6 8 9 9 10 12 13 14 17 18 16 15 17 18 18 17 16 16 16 16 15 14 14 14 13 13 13 13 12 12 12 11
7 6 8 7 7 4 4 7 4 15 15 14 12 9 10 10 11 10 9 10 12 15 17 18 19 17 16 19 19 18 19 19 19 18 18 18 17 17 16 15 15 14 15 15 15 14 14 13 12
7 6 6 8 11 11 8 7 11 17 17 15 15 14 14 14 12 10 11 11 13 15 17 19 21 24 22 22 21 20 22 20 19 20 20 19 19 20 19 17 17 16 16 17 17 17 16 14 13
8 7 7 7 12 12 12 12 13 17 17 15 14 15 14 13 13 12 12 11 14 18 20 23 24 25 27 27 21 21 23 21 21 21 22 22 22 22 21 20 19 18 18 18 18 18 18 16 15
7 6 5 7 11 12 13 11 9 9 12 13 13 13 13 12 12 12 13 15 17 21 23 25 25 24 23 22 22 17 21 25 25 24 24 24 25 24 23 23 21 21 19 20 19 19 19 18 17
7 6 6 9 12 14 13 12 7 6 7 12 13 11 11 12 13 13 15 17 21 25 27 27 26 27 26 26 25 22 18 22 29 29 27 28 26 27 26 24 24 23 22 21 21 21 20 20 19
9 7 7 9 13 15 15 12 12 8 11 15 16 16 16 15 16 17 18 20 23 26 28 28 27 28 30 29 29 28 24 23 29 35 34 31 31 28 28 28 27 26 25 23 23 23 23 22 21
9 10 9 9 12 16 17 19 17 15 17 18 20 21 21 23 24 26 27 28 27 29 32 33 33 31 32 34 33 35 34 33 27 35 37 36 34 33 31 30 29 29 28 26 25 24 24 23 22
13 13 11 13 13 15 17 18 18 20 21 23 23 22 22 22 23 24 23 22 20 21 24 27 28 29 29 31 35 36 36 33 32 30 39 42 38 37 36 34 31 31 30 28 27 26 25 25 25
14 15 14 14 16 16 18 16 17 19 22 23 22 22 21 21 20 20 21 22 22 25 25 25 25 26 27 28 31 35 38 40 37 36 36 39 43 40 40 39 36 33 32 31 29 29 27 28 27
14 13 13 16 16 19 20 17 20 24 24 21 22 23 21 19 20 22 24 26 28 31 27 26 25 25 25 27 29 32 36 43 46 44 41 43 42 45 45 42 41 40 36 33 33 31 29 29 30
12 15 15 16 18 21 20 25 29 28 26 24 23 23 22 22 24 25 27 30 32 28 26 26 27 28 29 29 30 33 38 40 44 51 53 48 49 48 45 46 44 44 42 38 35 34 33 33 33
16 17 17 12 13 15 17 23 25 30 27 22 21 22 23 25 26 28 31 35 33 29 27 29 30 32 35 36 37 39 40 39 42 43 49 55 57 55 52 51 50 46 48 46 39 39 37 36 35
16 15 17 13 13 12 14 15 22 23 25 25 24 25 26 26 28 33 38 36 33 33 31 34 37 39 43 46 47 47 47 43 41 43 44 44 53 61 61 55 53 48 44 50 44 44 42 40 39
13 16 16 15 11 13 13 18 18 20 25 27 28 28 28 29 32 35 35 36 35 36 37 39 42 46 49 52 55 56 56 49 44 45 45 46 47 50 61 63 59 59 50 48 51 50 48 46 41
18 19 18 17 14 17 20 20 22 27 27 28 30 30 30 33 35 37 36 34 36 38 40 43 47 50 55 57 59 58 56 50 47 47 48 48 50 52 54 60 63 61 62 54 43 58 50 48 47
21 23 25 24 19 21 23 27 28 29 31 33 34 32 33 35 37 37 36 34 36 40 42 45 50 55 59 59 57 57 52 49 48 47 48 48 52 56 58 61 60 63 63 62 64 54 59 53 50
22 23 27 26 21 21 23 34 33 33 32 30 32 34 35 38 37 35 32 34 37 39 42 47 52 55 54 55 55 53 50 49 50 51 50 49 47 49 52 57 63 62 66 68 55 65 45 57 47
31 25 21 25 22 16 18 13 27 26 28 30 31 30 32 33 32 30 30 33 34 39 42 48 50 51 51 52 52 50 48 46 46 46 45 43 40 42 42 45 53 63 64 69 66 72 71 45 47
17 12 17 22 22 25 23 11 24 21 29 29 28 26 27 27 26 28 28 30 33 36 40 43 45 44 44 44 44 44 44 44 41 40 45 46 41 42 44 40 41 55 59 61 68 68 66 49 59
13 14 12 18 20 11 22 15 39 21 18 14 19 20 21 22 22 23 26 29 33 36 36 38 38 38 38 36 36 36 37 39 39 40 43 44 45 43 44 45 38 42 54 52 58 65 59 56 58
29 21 4 4 4 8 11 17 36 7 13 13 18 20 17 17 18 20 24 29 30 30 33 35 36 36 34 33 33 33 33 34 34 34 37 38 39 40 33 36 34 39 40 48 47 53 61 55 58
20 26 14 5 4 4 10 10 18 14 16 17 16 18 15 14 16 20 24 24 25 28 30 32 33 33 33 32 33 32 29 28 25 23 21 23 23 24 20 21 22 31 33 39 38 44 54 53 61
8 19 29 26 16 5 10 18 22 23 25 23 16 11 11 13 17 18 18 20 23 24 27 29 31 32 33 33 32 35 34 27 17 15 17 18 22 20 16 12 19 23 26 23 33 38 50 55 52
18 16 8 12 4 5 6 10 16 11 9 8 7 9 13 15 15 15 16 18 20 20 22 28 32 34 36 36 36 40 34 23 9 12 13 14 21 15 13 11 9 14 18 20 22 30 37 33 43
4 13 16 9 14 2 1 7 7 7 7 14 13 16 17 14 15 14 14 14 15 17 18 23 26 32 37 36 34 40 39 37 29 21 15 21 18 11 10 21 18 18 17 18 21 23 28 29 30
21 20 8 12 6 13 14 19 17 19 23 17 12 19 16 15 15 12 11 9 9 14 17 22 26 28 31 40 41 45 41 43 41 37 33 22 15 9 10 17 24 24 18 18 23 19 21 21 30
Wind_Direction
302 308 321 315 13 114 113 89 58 142 99 98 151 187 185 179 164 160 150 142 135 135 70 332 304 279 273 274 273 282 292 299 307 310 309 308 307 306 305 304 296 282 267 256 249 245 243 245 244
289 292 296 299 192 134 119 96 80 72 144 131 137 146 139 119 126 132 132 128 142 303 304 304 293 289 286 279 265 264 274 285 292 295 298 300 303 305 302 299 294 284 274 262 253 249 245 248 250
281 270 264 245 219 175 179 169 87 216 184 175 183 169 163 117 119 144 160 183 212 245 269 284 290 284 273 255 253 255 260 269 277 283 286 291 295 298 298 296 291 280 276 266 257 251 246 246 250
271 247 228 232 186 195 234 240 294 210 190 195 207 190 188 163 161 179 205 221 244 253 265 276 285 283 279 263 255 249 253 258 267 277 284 287 288 290 292 291 287 278 273 268 263 260 259 256 254
252 231 215 225 178 157 266 273 271 195 196 203 207 217 208 186 200 213 241 269 288 297 304 307 304 306 310 292 262 242 243 255 263 270 275 278 278 282 284 286 283 277 271 267 264 264 265 267 259
239 215 208 199 134 118 130 154 170 187 189 202 217 234 221 191 198 219 238 258 276 293 299 302 304 306 309 307 294 253 232 235 253 262 266 269 272 274 277 279 281 278 272 269 265 264 264 265 260
243 219 215 202 164 140 132 152 180 192 200 199 199 214 215 190 204 224 244 258 273 283 293 297 298 299 302 304 305 283 243 237 237 247 259 263 265 269 273 277 278 278 275 272 267 263 261 262 258
256 226 208 204 174 170 166 158 155 175 191 180 183 211 223 216 221 239 254 263 277 289 295 300 304 305 304 303 304 291 272 251 239 242 251 257 263 266 267 272 275 275 272 271 268 263 259 259 258
265 232 210 208 200 194 188 183 189 213 208 207 218 231 234 239 255 261 268 281 289 291 293 296 299 300 299 296 293 290 277 270 260 246 241 250 256 263 268 267 268 270 270 269 268 264 258 253 254
261 245 224 215 217 209 205 209 206 243 262 252 235 242 251 251 255 263 270 273 275 278 281 285 288 288 289 287 285 285 283 268 262 254 247 242 244 249 258 262 264 263 263 264 264 263 261 255 253
261 247 242 224 222 232 233 226 226 234 258 272 274 269 268 272 273 273 276 278 276 271 272 277 280 281 281 282 280 280 280 280 269 253 250 247 247 248 249 254 260 263 265 265 265 265 264 259 254
261 258 246 233 243 252 261 263 259 259 266 270 280 283 280 279 280 284 286 285 283 285 285 282 281 283 283 276 274 276 276 273 268 257 247 247 245 246 247 248 250 259 262 263 263 261 260 258 253
264 260 260 259 258 259 260 265 272 269 268 272 275 275 276 278 283 286 291 296 301 304 296 291 287 286 284 283 282 277 274 275 268 258 254 250 246 246 248 248 247 249 254 259 259 259 257 257 255
270 269 263 258 259 261 260 265 272 270 275 276 274 282 284 286 289 295 299 306 312 313 307 307 304 298 294 292 287 281 276 272 269 266 253 252 249 247 244 246 248 247 246 249 254 256 254 254 255
271 272 270 275 263 259 255 255 254 257 262 264 268 275 276 281 289 296 303 306 309 305 304 305 307 306 307 305 304 300 287 277 272 268 266 256 252 247 244 244 245 246 247 243 244 248 251 248 249
279 283 289 275 257 258 248 247 252 253 252 248 255 259 268 279 289 296 300 302 302 301 299 302 306 306 308 308 306 312 305 288 278 271 265 264 261 255 250 242 243 243 241 247 242 244 244 247 247
277 272 274 265 258 260 241 245 245 246 245 251 255 262 272 281 291 294 297 301 301 302 298 300 301 304 308 308 308 308 307 293 280 273 268 264 261 259 256 250 241 240 241 240 243 244 244 241 243
285 280 264 251 242 237 241 243 255 251 249 256 258 264 270 279 281 287 294 297 298 300 299 301 304 305 307 308 309 307 304 296 283 275 268 266 263 261 258 255 251 244 244 241 237 240 244 243 240
275 265 259 254 246 256 244 254 259 263 265 259 256 261 269 275 281 287 293 292 295 299 299 300 302 304 306 307 304 301 298 292 284 278 274 269 262 259 258 256 253 250 241 237 240 236 239 240 239
263 264 264 269 267 265 268 268 270 272 270 264 262 264 272 277 281 286 290 292 297 299 299 302 305 305 306 305 306 304 300 294 287 279 274 269 264 262 258 253 252 250 246 243 238 232 235 235 237
263 267 264 268 275 274 282 278 274 272 269 266 265 268 273 277 280 283 285 291 297 301 304 306 306 306 304 304 305 303 298 293 289 286 281 275 266 261 261 256 249 248 247 244 238 240 242 240 234
266 266 274 264 266 261 280 284 281 278 273 271 272 273 275 275 279 286 292 298 301 305 308 308 307 307 307 307 306 303 297 294 291 285 280 278 267 262 265 261 252 246 245 243 242 245 243 257 233
271 285 276 262 260 263 260 258 279 275 277 282 276 271 271 277 285 292 298 302 304 307 309 308 309 309 309 309 306 304 302 300 295 290 286 280 271 265 266 262 255 246 246 246 243 244 254 252 244
256 304 286 253 241 245 250 230 280 278 283 270 264 271 274 279 287 295 301 307 312 312 313 315 316 320 322 318 320 314 303 296 290 287 283 278 273 266 261 263 259 253 246 246 243 245 249 253 237
260 265 262 244 198 246 267 231 247 253 280 276 285 282 277 282 291 299 309 311 313 318 324 329 333 337 334 334 335 326 312 301 291 294 291 291 278 273 268 267 264 254 251 243 241 242 243 245 251
272 250 214 235 214 262 225 228 244 270 275 274 275 276 278 284 294 307 311 315 325 329 336 342 345 344 344 343 349 349 340 322 308 304 301 297 296 290 265 260 258 258 242 236 236 238 239 246 244
289 246 247 241 272 303 252 263 264 272 275 275 276 261 265 283 300 311 318 329 336 343 350 356 0 357 356 357 2 1 356 346 319 290 293 303 298 281 273 247 249 241 222 224 227 241 238 239 243
254 273 220 206 225 227 236 249 245 256 284 280 277 265 284 288 300 316 326 336 340 352 5 12 17 13 11 8 8 9 13 6 316 309 319 329 307 289 249 203 215 204 213 221 230 243 244 245 247
275 234 235 237 237 235 248 248 230 225 276 308 292 287 289 295 304 312 320 334 345 3 5 12 23 17 22 23 23 25 20 20 18 349 336 335 324 323 242 217 212 206 222 214 222 224 232 235 246
264 257 252 229 234 231 252 257 257 273 280 286 297 301 284 292 294 298 312 335 11 34 29 29 24 21 16 27 35 33 32 35 32 16 9 359 336 276 248 212 220 200 207 219 224 219 219 221 231
Height
3147 3148 3148 3148 3152 3147 3147 3150 3150 3150 3150 3150 3151 3152 3154 3156 3158 3164 3162 3162 3164 3165 3165 3165 3165 3165 3164 3164 3165 3164 3164 3164 3163 3161 3161 3160 3159 3158 3158 3157 3156 3156 3155 3156 3157 3158 3158 3159 3159
3145 3147 3148 3148 3149 3148 3149 3148 3150 3151 3151 3151 3151 3152 3155 3156 3157 3160 3163 3163 3163 3163 3163 3163 3164 3164 3164 3164 3163 3162 3162 3162 3161 3161 3160 3160 3159 3158 3158 3157 3156 3156 3155 3155 3157 3158 3158 3158 3158
3144 3145 3147 3146 3146 3147 3149 3149 3150 3149 3150 3151 3152 3152 3153 3155 3159 3159 3161 3162 3163 3161 3161 3161 3160 3160 3160 3160 3160 3160 3160 3160 3160 3159 3159 3159 3159 3158 3157 3157 3156 3156 3155 3155 3156 3156 3157 3157 3157
3143 3145 3146 3145 3145 3147 3148 3148 3150 3150 3151 3152 3152 3153 3154 3153 3156 3157 3158 3158 3158 3158 3159 3159 3158 3157 3156 3156 3157 3157 3157 3157 3158 3158 3158 3158 3158 3157 3157 3156 3156 3156 3155 3154 3154 3155 3155 3155 3156
3141 3143 3143 3143 3144 3146 3146 3147 3148 3148 3149 3150 3150 3151 3153 3154 3154 3155 3156 3156 3156 3155 3155 3155 3155 3155 3155 3154 3153 3153 3154 3156 3156 3156 3156 3156 3155 3155 3155 3155 3154 3154 3153 3153 3153 3153 3153 3153 3154
3139 3141 3141 3143 3144 3146 3145 3145 3147 3146 3146 3148 3148 3148 3150 3152 3153 3153 3154 3155 3155 3155 3154 3154 3153 3153 3152 3153 3152 3149 3148 3150 3153 3153 3153 3153 3153 3153 3153 3152 3152 3152 3152 3152 3151 3151 3151 3151 3152
3137 3139 3139 3141 3144 3146 3146 3145 3146 3145 3146 3145 3146 3144 3147 3149 3150 3152 3152 3154 3154 3153 3152 3151 3150 3149 3148 3147 3147 3147 3145 3146 3148 3149 3149 3150 3150 3150 3151 3150 3150 3150 3150 3150 3149 3149 3150 3150 3150
3136 3137 3138 3140 3143 3145 3145 3146 3146 3146 3146 3146 3145 3145 3145 3147 3149 3150 3150 3152 3151 3150 3148 3146 3146 3145 3145 3144 3143 3144 3144 3143 3141 3144 3145 3146 3147 3147 3147 3148 3148 3148 3148 3147 3147 3147 3147 3148 3148
3134 3136 3136 3138 3140 3142 3144 3145 3145 3146 3146 3145 3145 3146 3147 3147 3147 3148 3147 3148 3147 3146 3144 3142 3142 3141 3140 3139 3139 3140 3141 3140 3141 3139 3138 3141 3142 3143 3144 3143 3144 3144 3144 3145 3145 3145 3144 3145 3146
3133 3134 3135 3136 3136 3138 3140 3143 3144 3145 3143 3143 3144 3144 3144 3145 3145 3145 3144 3144 3142 3141 3140 3138 3136 3136 3135 3134 3133 3133 3134 3136 3135 3134 3134 3133 3135 3136 3138 3139 3139 3139 3140 3140 3141 3141 3141 3141 3143
3132 3133 3134 3134 3134 3135 3137 3138 3139 3141 3141 3139 3139 3140 3141 3141 3141 3141 3140 3139 3138 3137 3135 3133 3132 3130 3130 3128 3127 3127 3127 3127 3129 3129 3129 3129 3129 3130 3130 3132 3133 3134 3135 3136 3137 3138 3138 3138 3139
3130 3131 3131 3132 3132 3133 3133 3135 3135 3136 3137 3135 3135 3135 3135 3135 3135 3134 3134 3134 3134 3132 3130 3127 3125 3124 3122 3122 3120 3119 3118 3119 3119 3121 3121 3121 3122 3123 3124 3124 3126 3128 3129 3131 3132 3132 3134 3134 3134
3127 3129 3128 3129 3130 3130 3131 3130 3129 3130 3130 3130 3129 3130 3130 3130 3130 3130 3129 3128 3127 3126 3124 3122 3120 3118 3117 3116 3115 3114 3112 3111 3111 3112 3112 3112 3114 3115 3116 3117 3118 3119 3122 3124 3126 3127 3128 3129 3130
3125 3124 3125 3126 3126 3125 3127 3128 3126 3124 3123 3124 3124 3125 3124 3125 3125 3125 3124 3123 3121 3119 3117 3116 3115 3113 3111 3109 3108 3107 3105 3103 3102 3102 3103 3103 3103 3104 3106 3108 3110 3112 3113 3115 3118 3120 3122 3124 3125
3122 3122 3121 3121 3122 3120 3123 3122 3119 3120 3120 3120 3121 3121 3120 3121 3121 3120 3119 3117 3116 3114 3112 3111 3109 3107 3105 3104 3101 3098 3096 3094 3093 3092 3092 3094 3093 3094 3095 3097 3099 3102 3104 3105 3109 3112 3114 3116 3118
3119 3118 3117 3117 3118 3117 3117 3114 3114 3115 3115 3115 3116 3117 3116 3116 3115 3114 3113 3111 3109 3108 3106 3104 3101 3099 3096 3094 3092 3090 3088 3084 3081 3080 3080 3080 3082 3083 3084 3086 3088 3091 3093 3097 3098 3102 3105 3107 3110
3116 3114 3114 3115 3115 3115 3114 3111 3111 3111 3111 3112 3112 3113 3113 3113 3111 3110 3107 3105 3103 3101 3100 3098 3095 3091 3088 3085 3082 3078 3077 3074 3071 3068 3068 3069 3067 3069 3071 3075 3078 3080 3082 3085 3089 3091 3095 3097 3101
3113 3113 3111 3111 3111 3110 3110 3110 3110 3109 3109 3109 3108 3108 3108 3108 3108 3106 3103 3100 3097 3094 3091 3088 3085 3082 3078 3073 3068 3064 3061 3060 3058 3056 3055 3056 3055 3054 3054 3060 3065 3069 3070 3073 3076 3079 3084 3089 3091
3111 3110 3108 3109 3108 3106 3104 3105 3105 3105 3105 3105 3104 3104 3103 3103 3101 3099 3097 3094 3091 3087 3084 3080 3076 3072 3067 3063 3058 3053 3046 3043 3042 3041 3040 3040 3040 3041 3040 3042 3048 3056 3059 3059 3063 3066 3069 3077 3082
3105 3105 3104 3105 3105 3103 3100 3098 3098 3098 3099 3099 3099 3100 3100 3098 3095 3092 3090 3087 3083 3081 3077 3073 3068 3061 3054 3047 3041 3034 3030 3026 3023 3023 3023 3023 3024 3024 3024 3026 3031 3037 3045 3050 3052 3051 3054 3063 3068
3098 3100 3101 3101 3101 3098 3096 3089 3089 3090 3091 3092 3093 3094 3093 3092 3090 3087 3085 3082 3079 3075 3071 3066 3060 3053 3046 3038 3030 3024 3018 3014 3009 3006 3005 3006 3008 3008 3008 3010 3014 3020 3026 3033 3041 3043 3030 3035 3056
3091 3095 3097 3097 3098 3095 3093 3082 3082 3083 3084 3085 3086 3087 3086 3084 3082 3080 3079 3076 3073 3069 3064 3058 3051 3044 3035 3026 3018 3012 3006 3000 2996 2993 2992 2993 2994 2995 2995 2995 2999 3004 3010 3015 3026 3030 3032 3026 3046
3089 3089 3090 3092 3092 3091 3087 3090 3070 3075 3076 3079 3079 3078 3077 3077 3076 3075 3073 3071 3068 3064 3058 3052 3044 3036 3027 3017 3010 3002 2994 2990 2986 2983 2980 2981 2983 2984 2984 2984 2986 2989 2995 3002 3010 3017 3022 3028 3039
3087 3087 3086 3086 3087 3085 3082 3088 3063 3068 3070 3070 3072 3072 3072 3071 3071 3071 3069 3065 3060 3056 3051 3043 3036 3027 3018 3011 3000 2991 2985 2981 2978 2975 2971 2969 2968 2969 2971 2973 2976 2978 2982 2990 2998 3006 3014 3022 3027
3082 3085 3086 3085 3084 3078 3077 3080 3066 3065 3067 3069 3068 3067 3067 3068 3067 3066 3063 3060 3055 3049 3043 3035 3027 3019 3013 3002 2993 2985 2977 2972 2968 2964 2961 2957 2955 2955 2958 2961 2963 2967 2971 2978 2987 2994 3002 3007 3014
3074 3078 3080 3075 3074 3071 3070 3067 3064 3064 3063 3063 3063 3064 3062 3063 3062 3061 3059 3055 3049 3044 3038 3031 3023 3016 3007 2999 2989 2980 2973 2966 2960 2958 2955 2951 2948 2947 2948 2950 2952 2958 2961 2967 2977 2984 2991 2997 3003
3070 3068 3070 3072 3071 3073 3067 3062 3062 3062 3061 3060 3060 3061 3060 3060 3058 3056 3053 3049 3045 3041 3035 3029 3021 3014 3006 2997 2987 2980 2970 2960 2956 2954 2949 2947 2944 2943 2942 2943 2944 2949 2953 2962 2968 2975 2983 2990 2996
3066 3068 3069 3070 3070 3067 3059 3058 3055 3056 3057 3056 3057 3057 3057 3055 3054 3051 3048 3045 3042 3038 3033 3028 3021 3014 3005 2997 2987 2979 2971 2962 2958 2950 2946 2943 2941 2938 2939 2939 2941 2946 2951 2956 2962 2968 2974 2981 2989
3064 3062 3064 3066 3066 3061 3062 3053 3051 3052 3053 3054 3054 3054 3053 3051 3049 3047 3046 3043 3041 3037 3033 3028 3024 3018 3010 3001 2990 2981 2973 2962 2952 2949 2945 2942 2941 2940 2939 2939 2940 2943 2949 2955 2960 2966 2969 2977 2982
3059 3060 3061 3060 3059 3057 3055 3047 3049 3051 3051 3051 3051 3050 3048 3047 3046 3045 3043 3042 3040 3036 3033 3030 3026 3019 3013 3006 2995 2987 2980 2968 2958 2953 2943 2939 2942 2942 2941 2941 2939 2939 2946 2952 2958 2963 2966 2971 2975